Aérodrome :
LOGIN :

S'inscrire | Disclaimer

   EN    FR    IT 

 










Légende :    VFR   VFR Marginal   IFR   IFR Intensif   IFR Très Intensif
Visi : 
Plafond : 
>= 8 km
>= 3000ft
5 à 8 km
1000 à 3000 ft
1500m à 5 km
500 à 1000 ft
800 à 1500m
200 à 500 ft
< 800m
< 200 ft
Symboles :   Orages  Brouillard  Fortes neiges  Fortes précipitations  Vent > 20 kt
SIGMETs :   Divers  Orages  Givrage  Turbulence  Onde Orograph.  Cendres Volcan.







- Altitude de l'aérodrome : 187 ft


LPMR - Monte Real Air Base

DERNIER METAR :
  • 140800Z 26005KT 2000 -DZ BR OVC005 15/14 Q1024

METARs EXPIRÉS :
  • 140700Z 27006KT 5000 BR OVC007 14/13 Q1024
  • 140600Z 25004KT 2000 -DZ BR OVC006 14/14 Q1024 RMK WIND RWY19 25004KT RH100 YLO

TAF TAF LPMR
Valide du 14 à 06h jusqu'au 15 à 06h UTC


140500Z 1406/1506 18008KT 5000 BR BKN008
PROB40
TEMPO 1406/1409 0800 DZRA FG OVC002
BECMG 1409/1411 27010KT 9999 NSW SCT012 BKN016
TEMPO 1409/1424 4000 -DZRA BR SCT004 BKN008
BECMG 1500/1502 6000 -RA SCT016 BKN020
TEMPO 1500/1506 3000 RA SCT010 BKN012
Pas de NOTAMs connus pour ce terrain.



MET'MAP, la Météo Aéronautique d'un coup d'oeil ! - Copyright ORBIFLY Décembre 2007 - Disclaimer

ORBIFLY MET'MAP TEAM :

Programmation & Développement : Alexandra Zaïnal
Conception & Développement : Baudouin d'Aumeries
Co-Programmation & Développement : Marc-Olivier Méhu
Soutien technique & logistique : Manuel Goepfert

Contact : metmap@orbifly.com




SOURCES & CREDITS :

   NOAA